Flag for Canada Weather past 2 weeks in Greater Sudbury, Ontario, Canada

Now
59 °F

Passing clouds.


Feels Like: 57 °F
Forecast: 60 / 81 °F
Wind: 13 mph from Northeast

Location: Sudbury

Current Time: Sep 4, 2015 at 7:04:41 AM

Latest Report: Sep 4, 2015 at 6:00 AM


Visibility: 15 mi

Pressure: 30.11 "Hg

Humidity: 82%

Dew point: 54 °F

Location of Greater SudburyLocation

Historic Weather in Greater Sudbury — Graph

°F

Greater Sudbury temperature yesterday

Maximum temperature yesterday: 79 °F (at 3:00 PM)
Minimum temperature yesterday: 63 °F (at 11:00 PM)
Average temperature yesterday: 69 °F

Past Weeks' High & Low Weather Summary

 TemperatureHumidityPressure
High81 °F (Sep 2, 5:00 PM)100% (Aug 20, 7:51 AM)30.18 "Hg (Aug 20, 7:51 AM)
Low45 °F (Aug 27, 4:00 AM)46% (Aug 23, 7:00 PM)29.57 "Hg (Aug 20, 7:51 AM)
Average63 °F84%29.97 "Hg
* Reported Aug 20 5:00 AM — Sep 4 5:00 AM, Greater Sudbury, Weather by CustomWeather, © 2015

Note: Actual official high and low records may vary slightly from our data, if they occured in-between our weather recording intervals... More about our weather records

Advertising

Greater Sudbury weather history for previous 24 hours

 ConditionsComfort  
Time TempWeatherWind HumidityBarometerVisibility
5:00 AM
Fri, Sep 4
59 °FPassing clouds.8 mph82%30.09 "Hg15 mi
4:00 AM61 °FPassing clouds.7 mph77%30.10 "Hg15 mi
3:00 AM61 °FPassing clouds.10 mph77%30.09 "Hg15 mi
2:00 AM61 °FClear.8 mph77%30.09 "Hg15 mi
1:00 AM61 °FClear.10 mph83%30.07 "Hg15 mi
12:00 AM61 °FClear.8 mph77%30.06 "Hg15 mi
11:00 PM
Thu, Sep 3
63 °FPassing clouds.9 mph77%30.06 "Hg15 mi
10:00 PM66 °FPassing clouds.8 mph68%30.06 "Hg15 mi
9:00 PM66 °FPassing clouds.10 mph68%30.04 "Hg15 mi
8:00 PM68 °FPartly sunny.7 mph64%30.03 "Hg20 mi
7:00 PM73 °FPartly sunny.8 mph57%30.01 "Hg20 mi
6:00 PM77 °FScattered clouds.10 mph51%29.99 "Hg20 mi
5:00 PM79 °FScattered clouds.9 mph48%30.00 "Hg20 mi
4:00 PM79 °FPartly sunny.13 mph48%30.02 "Hg20 mi
3:00 PM79 °FPartly sunny.9 mph51%30.02 "Hg20 mi
2:00 PM77 °FPartly sunny.12 mph57%30.02 "Hg20 mi
1:00 PM77 °FPartly sunny.14 mph57%30.02 "Hg20 mi
12:00 PM73 °FBroken clouds.9 mph74%30.03 "Hg20 mi
11:00 AM70 °FPartly sunny.12 mph78%30.03 "Hg20 mi
10:00 AM66 °FMore clouds than sun.12 mph83%30.04 "Hg20 mi
9:00 AM64 °FMore clouds than sun.14 mph88%30.03 "Hg20 mi
8:00 AM64 °FOvercast.12 mph88%30.02 "Hg20 mi
7:00 AM64 °FPassing clouds.14 mph88%30.00 "Hg20 mi
Weather by CustomWeather, © 2015

See weather overviewHow to use our weather pages